Weather in Drozhzhino

Russia / Smolensk Oblast     55°00′20″N   34°37′30″E
temp.,
°C
wind,
m/s
gust,
m/s
humid.,
%
clouds,
%
prec.,
mm/h
press.,
hPa
HPBL,
m
27 october, wed
wed2700:00+4sw51469100 0.0 1020518
03:00+3sw41370100 0.0 1018455
06:00+3sw41372100 0.0 1017445
09:00+3sw51472100 0.0 1015544
12:00+4wsw51275100 0.0 1015688
15:00+5wsw51289100 0.1 1015660
18:00+6wsw41092100 0.1 1017578
21:00+6wsw31081100 0.1 1016452
28 october, thu
thu2800:00+5sw31088100 0.0 1016322
03:00+4ssw41294100 0.0 1014398
06:00+6sw51493100 1.0 1011705
09:00+8wsw51394100 1.6 1011738
12:00+9w41295100 0.3 1012701
15:00+11wnw5118310 0.4 1013934
18:00+8nnw51182100 0.1 1017726
21:00+8n4989100 0.1 1020787
29 october, fri
fri2900:00+6ne4681100 0.0 1024673
03:00+6ene2276100 0.0 102665
06:00+6ese1280100 0.0 102843
09:00+6sse2372100 0.0 1029161
12:00+8ssw346724 0.0 1030801
15:00+9sw35705 0.0 1029673
18:00+5ssw268912 0.0 1030115
21:00+5sw2794100 0.0 1030156
30 october, sat
sat3000:00+4ssw2895100 0.0 1030189
03:00+4sw2895100 0.0 1031188
06:00+3ssw27955 0.0 1031156
09:00+4ssw389130 0.0 1031227
12:00+8ssw47715 0.0 1030407
15:00+9ssw39715 0.0 1029552
18:00+5s39925 0.0 1029242
21:00+5ssw312945 0.0 1029351
31 october, sun
sun3100:00+5ssw312948 0.0 1029371
03:00+5ssw312935 0.0 1029340
06:00+4ssw312945 0.0 1028306
09:00+5ssw312915 0.0 1028357
12:00+9ssw411755 0.0 1027509
15:00+10ssw4117012 0.0 1026649
18:00+6s310835 0.0 1026315
21:00+5s413805 0.0 1025380